Miscellaneous Local Product
Issued by NWS North Platte, NE

Home | Current Version | Previous Version | Text Only | Print | Product List | Glossary On
Versions: 1 2 3 4 5 6 7 8 9 10 11 12 13 14 15 16 17 18 19 20 21 22 23 24 25 26 27 28 29 30 31 32 33 34 35 36 37 38 39 40 41 42 43 44 45 46 47 48 49 50
925
AXUS43 KLBF 222010
MISLBF


WESTERN AND NORTH CENTRAL NEBRASKA HOURLY WEATHER ROUNDUP
NATIONAL WEATHER SERVICE NORTH PLATTE NE
300 PM CDT SUN MAY 22 2016

NOTE: "FAIR" INDICATES FEW OR NO CLOUDS BELOW 12,000 FEET WITH NO
SIGNIFICANT WEATHER AND/OR OBSTRUCTIONS TO VISIBILITY.

NOTE: STATIONS NOT REPORTING VARIABLES SUCH AS SKY/WEATHER OR
PRESSURE ARE PROVIDED BY RAWS AND APRS NETWORKS AND ARE NOT UNDER
NATIONAL WEATHER SERVICE QUALITY CONTROL.

...OBSERVATIONS IN AND NEAR THE EASTERN PANHANDLE OF NEBRASKA...

CITY           SKY/WX    TMP DP  RH WIND       PRES   REMARKS
PINE RIDGE     SUNNY     77  43  29 NE3       29.74F
CHADRON        SUNNY     76  42  29 W6        29.75F
ALLIANCE       SUNNY     75  49  39 E6        29.75F
SIDNEY         SUNNY     75  53  46 VRB7      29.78F
CRESCENT LAKE    N/A     80  56  43 S6          N/A
BIG SPRINGS      N/A     80  60  49 S12         N/A
$$

...OBSERVATIONS IN NORTHERN NEBRASKA AND FAR SOUTHERN SOUTH DAKOTA...

CITY           SKY/WX    TMP DP  RH WIND       PRES   REMARKS
WINNER         FAIR      82  62  50 S21G31    29.71F
VALENTINE      MOSUNNY   80  62  54 SE25G32   29.73F
THEDFORD       MOSUNNY   78  64  61 S24G33    29.76F
AINSWORTH      SUNNY     78  62  59 S22G30    29.77F
O`NEILL        PTSUNNY   77  63  62 SE18G28   29.82F
ORD            CLOUDY    73  64  73 S21G30    29.82S
BROKEN BOW     CLOUDY    73  64  73 S26G33    29.81F
BUTTE            N/A     77  64  63 SE20G32     N/A
CHAMBERS         N/A     78  65  64 S6G18       N/A
EWING            N/A     75  64  70 S13G24      N/A
$$

...OBSERVATIONS IN SOUTHWEST NEBRASKA AND FAR NORTHEAST COLORADO...

CITY           SKY/WX    TMP DP  RH WIND       PRES   REMARKS
WRAY           FAIR      86  41  20 S17G23    29.74F
HOLYOKE        FAIR      86  46  25 SW12G21   29.74F
IMPERIAL       MOSUNNY   88  53  30 S18G29    29.72F
OGALLALA       SUNNY     83  49  29 S18G28    29.71F
NORTH PLATTE   CLOUDY    81  66  60 S20G29    29.73F
MCCOOK         CLOUDY    82  66  58 S23G35    29.75F
LEXINGTON      CLOUDY    75  66  73 SE20G31   29.79F
PAXTON           N/A     84  63  48 S21         N/A
STAPLETON        N/A     79  67  66 SW5G12      N/A
GOTHENBURG       N/A     73  63  70 SE15        N/A
CALLAWAY         N/A     73  65  76 S30         N/A
$$

...OBSERVATIONS IN CENTRAL LINCOLN COUNTY AREA...

CITY           SKY/WX    TMP DP  RH WIND       PRES   REMARKS
N.P. AIRPORT   CLOUDY    81  66  60 S20G29    29.73F
N.P. DOWNTOWN    N/A     82  67  60 S10G26      N/A
N.P. SOUTHEAST   N/A     81  67  61 S16G29      N/A
N.P. HILLCREST   N/A     80  67  65 SE20G30     N/A
$$

...SOME OBSERVATIONS FROM AROUND THE REGION...

CITY           SKY/WX    TMP DP  RH WIND       PRES   REMARKS
DENVER         MOSUNNY   71  46  40 E8G21     29.80F
LARAMIE        CLOUDY    61  40  45 SE17G31   29.88F
CHEYENNE       MOSUNNY   65  41  41 E16G26    29.86F
SCOTTSBLUFF    SUNNY     77  42  28 NE9G17    29.77F
RAPID CITY     SUNNY     78  48  34 S15G22    29.71F
BISMARCK       CLOUDY    73  60  63 SW13      29.68F
PIERRE         MOSUNNY   83  62  49 S16G28    29.66F
SIOUX FALLS    MOSUNNY   81  59  47 S22G30    29.85F
OMAHA          CLOUDY    83  60  45 S21G29    29.92F
GRAND ISLAND   CLOUDY    77  64  64 S18G29    29.85F
KANSAS CITY    PTSUNNY   80  60  50 S13       30.01F
WICHITA        CLOUDY    81  66  60 S24       29.94F
OKLAHOMA CITY  PTSUNNY   80  68  66 S17G25    29.97F
DALLAS         PTSUNNY   82  69  64 SE16      29.95F
AMARILLO       MOSUNNY   83  63  50 S20G29    29.91F
DODGE CITY     MOSUNNY   77  66  68 S29G38    29.88F
GOODLAND       MOSUNNY   86  53  32 S25G38    29.76F
$$




USA.gov is the U.S. government's official web portal to all federal, state and local government web resources and services.